Location: Chena
(64.8152°N, 147.9227°W)
Time: 01:47:35
(UTC+00:00)

Vanguard 2 - Pass Details

Date: 10 March 2021
Orbit: 552 x 2938 km, 32.9° (Epoch: 10 April)

Event Time Altitude Azimuth Distance (km) Brightness Sun altitude
Rises 16:08:24 0° 245° (WSW) 5,948 11.5 -2.8°
Reaches altitude 10° 16:16:35 10° 218° (SW) 5,424 11.5 -1.9°
Maximum altitude 16:20:55 12° 202° (SSW) 5,460 11.7 -1.4°
Drops below altitude 10° 16:25:28 10° 187° (S) 5,714 12.0 -1.0°
Sets 16:35:00 0° 161° (SSE) 6,761 12.8 0.0°
